This demonstration page uses our WeatherBlox Daily Observations layout. Learn more.

Left ArrowRight Arrow

39.29038, -76.61219

Hourly Observations for May 20, 2021

Temp ( °F °C ) Dew Point ( °F °C ) Humidity (%) Winds ( mph kmh ) Pressure ( in mb ) Visibility ( mi km ) Precip ( " mm )
12:54 am 00:54 Partly Cloudy 67 19.4 51 10.6 57 57 W 3 6 30.32 1027 10 16 N/A
1:54 am 01:54 Mostly Clear 66 18.9 51 10.6 59 59 W 5 7 30.32 1027 10 16 N/A
2:54 am 02:54 Partly Cloudy 65 18.3 50 10 59 59 W 5 7 30.32 1027 10 16 N/A
3:54 am 03:54 Mostly Clear 66 18.9 50 10 56 56 WSW 5 7 30.32 1027 10 16 N/A
4:54 am 04:54 Partly Cloudy 62 16.7 51 10.6 67 67 WSW 5 7 30.33 1027 10 16 N/A
5:54 am 05:54 Partly Cloudy 63 17.2 50 10 63 63 WSW 3 6 30.35 1028 10 16 N/A
6:54 am 06:54 Mostly Cloudy 65 18.3 54 12.2 68 68 N N/A 30.36 1028 10 16 N/A
7:54 am 07:54 Mostly Cloudy 71 21.7 55 12.8 57 57 VRB 5 7 30.38 1029 10 16 N/A
8:54 am 08:54 Mostly Cloudy 77 25 54 12.2 45 45 VRB 5 7 30.40 1029 10 16 N/A
9:54 am 09:54 Mostly Cloudy 83 28.3 54 12.2 37 37 VRB 3 6 30.39 1029 10 16 N/A
10:54 am 10:54 Mostly Cloudy 84 28.9 56 13.3 38 38 E 8 13 30.40 1029 10 16 N/A
11:54 am 11:54 Mostly Cloudy 84 28.9 56 13.3 38 38 E 9 15 30.40 1030 10 16 N/A
12:54 pm 12:54 Partly Cloudy 84 28.9 57 13.9 40 40 ESE 13 20 30.40 1029 10 16 N/A
1:54 pm 13:54 Partly Cloudy 86 30 56 13.3 36 36 E 15 24 30.39 1029 10 16 N/A
2:54 pm 14:54 Partly Cloudy 85 29.4 56 13.3 37 37 ENE 15 24 30.39 1029 10 16 N/A
3:54 pm 15:54 Partly Cloudy 85 29.4 55 12.8 36 36 ENE 15 24 30.39 1029 10 16 N/A
4:54 pm 16:54 Partly Cloudy 85 29.4 55 12.8 36 36 ENE 16 26 30.38 1029 10 16 N/A
5:54 pm 17:54 Mostly Sunny 83 28.3 54 12.2 37 37 SE 13 20 30.40 1029 10 16 N/A
6:54 pm 18:54 Mostly Sunny 79 26.1 50 10 36 36 ESE 12 19 30.40 1030 10 16 N/A
7:54 pm 19:54 Mostly Sunny 74 23.3 45 7.2 36 36 SSE 9 15 30.42 1030 10 16 N/A
8:54 pm 20:54 Mostly Clear 71 21.7 45 7.2 39 39 SE 5 7 30.44 1031 10 16 N/A
9:54 pm 21:54 Clear 68 20 46 7.8 45 45 SSE 3 6 30.46 1032 10 16 N/A
10:54 pm 22:54 Mostly Clear 66 18.9 48 8.9 52 52 SSE 3 6 30.47 1032 10 16 N/A
11:54 pm 23:54 Mostly Clear 63 17.2 47 8.3 56 56 N N/A 30.48 1032 10 16 N/A

Powered by AerisWeather